Regional Weather Roundup
Issued by NWS

Home | Current Version | Previous Version | Text Only | Print | Product List | Glossary Off
Versions: 1 2 3 4 5 6 7 8 9 10 11 12 13 14 15 16 17 18 19 20 21 22 23 24 25 26 27 28 29 30 31 32 33 34 35 36 37 38 39 40 41 42 43 44 45 46 47 48 49 50

000
ASUS45 KCYS 281610
RWRWY

WYOMING REGIONAL WEATHER ROUNDUP
NATIONAL WEATHER SERVICE CHEYENNE WY
900 AM MST WED JAN 28 2015

NOTE:  "FAIR" INDICATES FEW OR NO CLOUDS BELOW 12,000 FEET
WITH NO SIGNIFICANT WEATHER AND/OR OBSTRUCTIONS TO VISIBILITY.

WYZ001-281700-
YELLOWSTONE NATIONAL PARK

CITY           SKY/WX    TMP DP  RH WIND       PRES   REMARKS
LK YELLOWSTONE   N/A     29  28  96 CALM      30.21R
W YELLOWSTONE  NOT AVBL

$$
WYZ002>013-054>058-071-098>099-281700-
NORTHERN WYOMING

CITY           SKY/WX    TMP DP  RH WIND       PRES   REMARKS
JACKSON        PTSUNNY   36  34  93 CALM      30.20R
CODY           CLOUDY    39  37  93 NE6       30.11R WCI  35
GREYBULL       LGT RAIN  34  34 100 W7        30.10R FOG     WCI  28
WORLAND        LGT RAIN  33  32  96 SW8       30.10R FOG     WCI  26
SHERIDAN       LGT RAIN  48  35  60 NW21G32   30.04R
BUFFALO          N/A     46  35  65 NW23G33   30.03R
GILLETTE       PTSUNNY   46  31  55 W14       29.97S
HULETT           N/A    N/A N/A N/A MISG        N/A
NEWCASTLE      FAIR      37  30  75 NW8       29.95R WCI  31

$$
WYZ014>020-022>026-101>103-281700-
CENTRAL WYOMING

CITY           SKY/WX    TMP DP  RH WIND       PRES   REMARKS
BIG PINEY      CLOUDY    28  25  88 E5        30.20S WCI  23
PINEDALE       CLOUDY    27  27 100 W3        30.21R
DUBOIS         FAIR      34  28  80 NW14G21   30.12R WCI  24
LANDER         FAIR      36  26  67 S3        30.09R
RIVERTON       CLOUDY    38  29  70 CALM      30.10R
CASPER         LGT RAIN  38  30  73 SW8       30.09R WCI  32
DOUGLAS        CLOUDY    45  32  60 W26G38    30.02R

$$
WYZ021-027>030-104>119-281700-
SOUTHERN WYOMING

CITY           SKY/WX    TMP DP  RH WIND       PRES   REMARKS
EVANSTON       PTSUNNY   34  31  88 SW7       30.25R WCI  28
KEMMERER       CLOUDY    34  32  93 W12       30.23R WCI  25
FORT BRIDGER   CLOUDY    37  34  88 W12G17    30.26R WCI  29
ROCK SPRINGS   FAIR      35  29  78 W23       30.21R WCI  23
DIXON          LGT RAIN  37  32  82 SW13      30.26S WCI  29
RAWLINS        MIX PCPN  37  29  72 SW22G30   30.15R WCI  26
SARATOGA       CLOUDY    36  30  80 W17G23    30.18F WCI  25
LARAMIE        FAIR      39  26  59 W25G31    30.10S WCI  28
CHEYENNE       FAIR      45  27  49 W15       30.07F
TORRINGTON     FAIR      50  32  50 W15G23    29.97S
PINE BLUFFS    FAIR      48  30  49 W18G30    30.01F

$$


USA.gov is the U.S. government's official web portal to all federal, state and local government web resources and services.